User: anonymous   Login
Location: Boussy-Saint-Antoine
(48.6830°N, 2.5330°E)
Time: 06:39:06
(UTC+02:00)
Language:

First-Move - Orbit

View from above orbital plane
View from above orbital plane
View from above satellite
View from above satellite

Ground track
Ground track

The orbit data is extracted from the following two-line orbital elements,

1 39439U 13066Z   19233.84537484  .00000230  00000-0  34441-4 0  9990
2 39439  97.5705 243.7156 0065271 182.7181 177.3688 14.81873520310441
Epoch (UTC): 21 August 2019 20:17:20
Eccentricity: 0.0065271
inclination: 97.5705°
perigee height: 578 km
apogee height: 669 km
right ascension of ascending node: 243.7156°
argument of perigee: 182.7181°
revolutions per day: 14.81873520
mean anomaly at epoch: 177.3688°
orbit number at epoch: 31044

The dashed part of the orbit path shows where the satellite is in the earth's shadow,  

DLR